Weather in Zaporizhia

Ukraine / Zaporizhia Region     47˚50′19″N   35˚08′22″E
temp.,
°C
wind,
m/s
gust,
m/s
humid.,
%
clouds,
%
prec.,
mm/h
press.,
hPa
HPBL,
m
2 december, wed
wed223:00+3˚e61076100 0.1 1024644
02:00+3˚e61076100 0.3 1025601
05:00+2˚e5872100 0.0 1025546
08:00+2˚e5974100 0.0 1026567
11:00+3˚e5873100 0.0 1026615
14:00+4˚e5769100 0.0 1025660
17:00+3˚e5869100 0.0 1026606
20:00+2˚e587498 0.0 1026497
3 december, thu
thu323:00+2˚e5877100 0.0 1027457
02:00+3˚e4883100 0.1 1026456
05:00+3˚e5885100 0.6 1026404
08:00+3˚ese4787100 0.6 1027415
11:00+4˚ese4780100 0.0 1027483
14:00+5˚ese4678100 0.0 1026454
17:00+5˚e5878100 0.0 1026479
20:00+4˚ese4881100 0.0 1026450
4 december, fri
fri423:00+2˚e498887 0.0 1026353
02:00+3˚e5108980 0.0 1026374
05:00+2˚e698650 0.0 1026435
08:00+2˚e698375 0.0 1027475
11:00+4˚ese6877100 0.0 1026587
14:00+5˚e687289 0.0 1026643
17:00+3˚e6117929 0.0 1026519
20:00+2˚e6118035 0.0 1027544
5 december, sat
sat523:00+2˚e5107982 0.0 1027564
02:00+3˚e697688 0.0 1028633
05:00+1˚e61072100 0.0 1027531
08:00e5107568 0.0 1028506
11:00+1˚e696752 0.0 1029700
14:00+3˚e596057 0.0 1028777
17:00+1˚e512620 0.0 1028606
20:00e613490 0.0 1030571
6 december, sun
sun623:00−2˚e612530 0.0 1030502
02:00−3˚e613520 0.0 1030455
05:00−3˚e612530 0.0 1030435
08:00−3˚e713500 0.0 1031437
11:00e711410 0.0 1031540
14:00+2˚e712340 0.0 1030669
17:00−1˚e714370 0.0 1030532
20:00−2˚e714410 0.0 1031485